FLOCK 3M-1 (42995 NORAD) Tracking and Keplerian Element Data

This shows tracking and keplerian element data for the satellite.

Feedback or suggestion? Click here.




ElementValue
Catalog42995
NameFLOCK 3M-1
Epoch Orbit1611
Epoch Day46.13104559
Epoch Year2018
RAAN162.2167
Inclination97.3451
Eccentricity0.0017042
Argument of Perigee209.8636
Mean Anonmoly150.1627
Mean Motion15.18263269
Decay Rate3.328E-05
L11 42995U 17068J 18046.13104559 .00003328 00000-0 16512-3 0 9992
L22 42995 97.3451 162.2167 0017042 209.8636 150.1627 15.18263269 16117

Live tracking and technical data element details for FLOCK 3M-1 (NORAD 42995). FLOCK 3M-1 can be tracked NOW for your location showing map with azimuth and elevation plus other details from your city location.

Track the satellite on the map from your city or location and see movement details for azimuth, elevation, latitude, longitude, range, height, and movement on the map or in text.







IsCatalogInMostPopularTable: catalog: 42995, numindb: 141
Update: records affected: 1



GetName: 42995 FLOCK 3M-1

Hit Count: updated at: Fri, 16 Nov 2018 11:43:21 GMT